Nashua, NH

8:02 PM EST on December 06, 2019 (GMT -0500)
Boire

Weather History for KASH - June, 2019

Change the Weather History Date:

Friday, June 14, 2019

  Actual Average Record
Temperature  
Mean Temperature 60 °F -  
Max Temperature 70 °F 78 °F 95 °F (1956)
Min Temperature 50 °F 53 °F 39 °F (1970)
Degree Days  
Heating Degree Days 5    
Growing Degree Days 10 (Base 50)    
Moisture  
Dew Point 53 °F    
Average Humidity 81    
Maximum Humidity 100    
Minimum Humidity 54    
Precipitation  
Precipitation 0.00 in - - ()
Sea Level Pressure  
Sea Level Pressure 29.82 in    
Wind  
Wind Speed 3 mph ()    
Max Wind Speed 15 mph    
Max Gust Speed 24 mph    
Visibility 10.0 miles    
Events      
Averages and records for this station are not official NWS values.
T = Trace of Precipitation, MM = Missing Value Source: Averaged Metar Reports

Daily Weather History Graph

Daily Weather History Graph

Search for Another Location

Airport or City:

Astronomy

Jun. 14, 2019 Rise Set
Actual Time 5:07 AM EDT 8:25 PM EDT
Civil Twilight 4:32 AM EDT 9:00 PM EDT
Nautical Twilight 3:46 AM EDT 9:46 PM EDT
Astronomical Twilight 2:50 AM EDT 10:42 PM EDT
Moon 5:40 PM EDT (6/14) 3:28 AM EDT (6/14)
Length of Visible Light 16h 28m
Length of Day
15h 18m
Waxing Gibbous, 92% of the Moon is Illuminated
Jun 14
Waxing Gibbous
Jun 17
Full
Jun 25
Last Quarter
Jul 2
New
Jul 9
First Quarter

Hourly Weather History & Observations

Time (EDT) Temp. Dew Point Humidity Pressure Visibility Wind Dir Wind Speed Gust Speed Precip Events Conditions
12:56 AM 50.0 °F 50.0 °F 100% 29.81 in 10.0 mi Calm Calm - N/A   Clear
1:56 AM 50.0 °F 50.0 °F 100% 29.81 in 10.0 mi SE 3.5 mph - N/A   Mostly Cloudy
2:56 AM 50.0 °F 50.0 °F 100% 29.80 in 10.0 mi Calm Calm - N/A   Overcast
3:11 AM 51.8 °F 51.8 °F 100% 29.77 in 10.0 mi Calm Calm - N/A   Overcast
3:56 AM 51.1 °F 51.1 °F 100% 29.80 in 10.0 mi Calm Calm - N/A   Overcast
4:56 AM 52.0 °F 52.0 °F 100% 29.81 in 10.0 mi Calm Calm - N/A   Overcast
5:12 AM 51.8 °F 51.8 °F 100% 29.77 in 10.0 mi SE 3.5 mph - N/A   Overcast
5:56 AM 52.0 °F 52.0 °F 100% 29.81 in 10.0 mi ESE 4.6 mph - N/A   Overcast
6:04 AM 53.6 °F 53.6 °F 100% 29.78 in 10.0 mi Calm Calm - N/A   Overcast
6:34 AM 53.6 °F 53.6 °F 100% 29.78 in 10.0 mi Calm Calm - N/A   Overcast
6:56 AM 54.0 °F 54.0 °F 100% 29.82 in 10.0 mi Calm Calm - N/A   Overcast
7:29 AM 55.4 °F 55.4 °F 100% 29.78 in 10.0 mi Variable 3.5 mph - N/A   Overcast
7:56 AM 57.9 °F 57.0 °F 97% 29.82 in 10.0 mi Calm Calm - N/A   Overcast
8:56 AM 61.0 °F 57.9 °F 90% 29.82 in 10.0 mi Variable 5.8 mph - N/A   Overcast
9:36 AM 62.6 °F 55.4 °F 77% 29.78 in 10.0 mi WSW 8.1 mph - N/A   Scattered Clouds
9:56 AM 64.9 °F 55.9 °F 73% 29.80 in 10.0 mi WSW 8.1 mph - N/A   Partly Cloudy
10:56 AM 68.0 °F 55.0 °F 63% 29.80 in 10.0 mi WSW 8.1 mph - N/A   Mostly Cloudy
11:56 AM 69.1 °F 52.0 °F 54% 29.80 in 10.0 mi West 8.1 mph 16.1 mph N/A   Mostly Cloudy
12:56 PM 70.0 °F 54.0 °F 57% 29.80 in 10.0 mi Variable 6.9 mph - N/A   Overcast
1:56 PM 69.1 °F 55.0 °F 61% 29.81 in 10.0 mi Variable 3.5 mph - N/A   Mostly Cloudy
2:56 PM 70.0 °F 53.1 °F 55% 29.80 in 10.0 mi West 11.5 mph 16.1 mph N/A   Mostly Cloudy
3:56 PM 69.1 °F 52.0 °F 54% 29.82 in 10.0 mi WNW 13.8 mph 24.2 mph N/A   Mostly Cloudy
4:56 PM 66.9 °F 51.1 °F 57% 29.84 in 10.0 mi WNW 15.0 mph 24.2 mph N/A   Overcast
5:56 PM 64.9 °F 48.9 °F 56% 29.87 in 10.0 mi West 12.7 mph 24.2 mph N/A   Scattered Clouds
6:56 PM 63.0 °F 50.0 °F 63% 29.89 in 10.0 mi West 8.1 mph 21.9 mph N/A   Mostly Cloudy
7:56 PM 62.1 °F 48.9 °F 62% 29.92 in 10.0 mi WNW 12.7 mph 19.6 mph N/A   Mostly Cloudy
8:56 PM 61.0 °F 50.0 °F 67% 29.94 in 10.0 mi West 5.8 mph - N/A   Mostly Cloudy
9:56 PM 60.1 °F 51.1 °F 72% 29.96 in 10.0 mi West 6.9 mph - N/A   Partly Cloudy